Regional Weather Roundup
Issued by NWS Midland/Odessa, TX

Home | Current Version | Previous Version | Text Only | Print | Product List | Glossary On
Versions: 1 2 3 4 5 6 7 8 9 10 11 12 13 14 15 16 17 18 19 20 21 22 23 24 25 26 27 28 29 30 31 32 33 34 35 36 37 38 39 40 41 42 43 44 45 46 47 48 49 50
000
ASUS44 KMAF 051101
RWRMAF
MIDLAND AREA WEATHER ROUNDUP
NATIONAL WEATHER SERVICE MIDLAND TX
600 AM CDT THU MAY 05 2016

...IN SOUTHWEST TEXAS AND SOUTHEAST NEW MEXICO...

CITY           SKY/WX    TMP DP  RH WIND       PRES   REMARKS
ALPINE         PTCLDY    49  26  41 W8        30.24S
ANDREWS        FAIR      52  37  55 SW3       30.13R
ARTESIA        CLEAR     50  23  34 NW7       30.13S
BIG SPRING     CLEAR     50  36  57 CALM      30.13R
CARLSBAD       PTCLDY    49  27  42 CALM      30.11S
DRYDEN           N/A     61  33  35 CALM      30.08R
FORT STOCKTON  CLEAR     59  32  36 S10       30.11R
GUAD PASS      NOT AVBL
HOBBS          CLEAR     45  27  49 NW6       30.16R
MARFA          CLOUDY    43  23  45 N6        30.22R WCI  39
MIDLAND AIRPK  CLEAR     60  35  40 CALM      30.12R
MIDLAND INTL   CLEAR     56  32  40 CALM      30.11R
ODESSA         CLEAR     57  32  38 S5        30.12R
PECOS          CLEAR     49  21  33 W5        30.10R
PRESIDIO       FAIR      67  28  22 MISG      30.08S
SEMINOLE       CLEAR     48  33  55 CALM      30.14S
SNYDER           N/A     58  41  54 CALM      30.11S
WINK           CLEAR     45  29  53 N7        30.10R
$$
...OTHER STATIONS IN TEXAS...

CITY           SKY/WX    TMP DP  RH WIND       PRES   REMARKS
ABILENE        CLEAR     56  46  69 E3        30.08S
AMARILLO       CLEAR     49  37  63 SE7       30.15S
AUSTIN         CLEAR     53  51  93 W3        30.02S
BROWNSVILLE    CLEAR     64  62  93 SW6       30.03R
CORPUS CHRISTI CLEAR     60  55  83 SW5       30.02R
DALLAS FTW     CLEAR     61  51  70 NW5       30.05R
DEL RIO        CLOUDY    56  48  74 CALM      30.03R
EL PASO        PTCLDY    66  21  18 CALM      30.10S
HOUSTON INT    CLEAR     60  55  83 W3        29.99R
LUBBOCK        CLEAR     55  35  47 SW6       30.12F
SAN ANGELO     CLEAR     47  41  80 SW3       30.08S
SAN ANTONIO    CLEAR     56  47  71 NW7       30.04S
WACO           CLEAR     54  51  90 CALM      30.05R
WICHITA FALLS  NOT AVBL
$$
...OTHER LOCATIONS IN NEW MEXICO...

CITY           SKY/WX    TMP DP  RH WIND       PRES   REMARKS
ALAMAGORDO     CLEAR     50  18  27 NE3       30.14R
ALBUQUERQUE    CLEAR     54  25  32 N5        30.19S
CANNON AFB     CLEAR     47  31  53 NW3       30.15R
CLOVIS         CLEAR     46  30  53 W3        30.16S
HOLLOMAN AFB   CLEAR     49  19  29 N7        30.12S
ROSWELL        CLEAR     50  25  37 W5        30.13R
RUIDOSO          N/A     46  19  34 CALM      30.29S
SANTA FE       CLEAR     46  21  37 N3        30.23S
TRUTH OR CONSE CLEAR     55  24  30 NW9       30.14S
TUCUMCARI      CLEAR     46  32  58 VRB3      30.13S
$$



USA.gov is the U.S. government's official web portal to all federal, state and local government web resources and services.